www.pogodaiklimat.ru

Погода и климат >> Архив погоды >> Россия >> Архангельская область >> Абрамовский маяк


ПОГОДА в Абрамовском маяке

  • Прогноз погоды в Абрамовском маяке
  • Монитор погоды в Абрамовском маяке

АРХИВ ПОГОДЫ в Абрамовском маяке

Время (UTC), дата Ветер
(напр.,м/с)
 
Видим.   Явления Облачность Т
(С)
Тd
(С)
f
(%)
Тe
(С)
Тes
(С)
Комфортность P
(гПа)
Po
(гПа)
Тmin
(С)
Tmax
(С)
R
(мм)
R24
(мм)
S
(см)
00 15.09 С 7-10
{11}
4000 м слаб. ливневой дождь 10/10 300 м
[Cb cap]
+11.2 +10.6 96 +8 +8 990.0 987.5
03 15.09 С 10-14
{16}
4000 м слаб. ливневой дождь 10/10 300 м
[Cb cap]
+10.8 +10.1 95 +6 +6 987.6 985.1 +10.8 6
06 15.09 С 10-14
{16}
4000 м слаб. ливневой дождь 10/10 300 м
[Cb cap]
+10.7 +10.0 95 +6 +6 986.2 983.7 +10.7
09 15.09 С 10-13
{15}
4000 м слаб. ливневой дождь 10/10 300 м
[Cb cap]
+10.6 +9.9 95 +6 +6 985.9 983.3
12 15.09 СЗ 8-11
{14}
4000 м слаб. морось 10/10 300 м
[St]
+10.4 +9.8 96 +6 +6 985.8 983.3
15 15.09 СЗ 9-11
{12}
4000 м слаб. ливневой дождь {морось} 9/9 300 м
[Cb cap]
+9.7 +8.6 93 +5 +5 985.7 983.1 +11.0 6
18 15.09 СЗ 8-11
{12}
4000 м слаб. ливневой дождь {морось} 10/10 300 м
[Cb cap]
+9.2 +8.3 94 +5 +5 984.7 982.1
21 15.09 С 6
{11}
4000 м дымка {ливн. осадки} 10/10 300 м
[Sc]
+9.3 +8.7 96 +5 +5 983.7 981.3
00 16.09 С 5 20 км {ливн. осадки} 9/9 300 м
[Sc]
+9.4 +8.1 92 +6 +6 984.2 981.6
03 16.09 С 7
{10}
20 км в посл. час ливневой дождь 10/10 300 м
[Cb cap]
+9.2 +7.7 90 +5 +5 983.9 981.3 +9.0 4
06 16.09 С 6
{10}
4000 м слаб. ливневой дождь 10/10 300 м
[Cb cap]
+8.6 +7.6 93 +5 +5 983.9 981.4 +8.6
09 16.09 С 4
{10}
20 км в посл. час ливневой дождь 9/9 300 м
[Cb cap]
+9.6 +7.6 87 +7 +7 984.6 982.0
12 16.09 С 6-12
{10}
20 км {ливн. осадки} 9/9 600 м
[Sc]
+8.6 +7.6 93 +5 +5 983.9 981.4 +8.6
15 16.09 С 6 20 км 10/10 300 м
[Cb cap]
+8.8 +6.3 84 +5 +5 985.7 983.1 +10.1 0.8
18 16.09 С 6
{10}
20 км {ливн. осадки} 10/10 300 м
[Cb cap]
+8.9 +6.8 87 +5 +5 985.8 983.3
21 16.09 СВ 6
{10}
20 км {ливн. осадки} 10/10 300 м
[Cb cap]
+8.8 +7.0 88 +5 +5 986.0 983.4
00 17.09 СВ 5
{10}
20 км в посл. час ливневой дождь 9/9 300 м
[Cb cap]
+8.6 +7.6 93 +5 +5 986.6 984.0
03 17.09 СВ 8-13
{13}
20 км слаб. ливневой дождь 9/9 300 м
[Cb cap]
+8.6 +7.0 90 +4 +4 987.4 984.8 +8.2 3
06 17.09 СВ 9-13
{14}
4000 м слаб. ливневой дождь 10/10 300 м
[Cb cap]
+8.5 +7.0 90 +4 +4 988.5 985.9
09 17.09 С 10-17
{18}
20 км в посл. час ливневой дождь 10/10 300 м
[Cb cap]
+8.2 +6.6 90 +3 +3 990.0 987.4
12 17.09 С 11-16
{17}
20 км {ливн. осадки} 10/10 300 м
[Sc]
+7.6 +5.5 87 +2 +2 992.7 990.1
15 17.09 С 8-12
{17}
20 км 9/9 300 м
[Sc]
+7.3 +3.2 75 +2 +2 994.6 992.0 +8.8 3
18 17.09 С 7-11
{14}
20 км 9/9 300 м
[Sc]
+6.7 +2.3 73 +2 +2 995.8 993.2
21 17.09 С 7-12
{12}
20 км 8/8 300 м
[Sc]
+5.9 +1.6 74 +1 +1 996.4 993.8
00 18.09 С 7-11
{13}
20 км 8/8 300 м
[Sc]
+6.2 +1.4 71 +1 +1 997.0 994.4
03 18.09 СЗ 8-11
{11}
20 км 5/5 300 м
[Cb cap]
+6.1 +1.4 72 +1 +1 997.5 994.9 +5.4
06 18.09 СЗ 7
{11}
20 км в посл. час ливневой дождь 8/6 300 м
[Cb cap Ci fib]
+6.3 +0.5 66 +2 +2 998.1 995.5
09 18.09 СЗ 8-10
{11}
20 км в посл. час ливневой дождь 6/6 300 м
[Cb cap]
+6.4 +2.1 74 +1 +2 999.5 996.8
12 18.09 З 6
{12}
20 км 8/8 300 м
[Cb cap]
+6.8 +3.0 77 +2 +3 1000.3 997.7
15 18.09 СЗ 8-10
{13}
20 км 8/8 300 м
[Cb cap]
+6.6 +2.0 72 +2 +2 1000.8 998.2 +7.3 0.3
18 18.09 СЗ 8-10
{13}
20 км {ливн. осадки} 9/9 300 м
[Cb cap]
+6.2 +2.0 74 +1 +1 1001.2 998.6
21 18.09 СЗ 8-11
{12}
20 км 9/9 300 м
[Cb cap]
+6.2 +2.8 79 +1 +1 1001.3 998.7
00 19.09 СЗ 9-11
{13}
20 км 6/6 300 м
[Cb cap]
+6.1 +1.9 74 +1 +1 1001.9 999.3
03 19.09 З 8-10
{12}
20 км 6/6 300 м
[Cb cap]
+5.1 +1.7 79 -1 -1 1002.2 999.5 +4.9 0.1
06 19.09 З 7-10
{11}
20 км 8/8 300 м
[Cb cap]
+5.2 +1.9 79 -0 0 1002.7 1000.1 +4.7
09 19.09 З 8-11
{12}
20 км 9/9 300 м
[Cu med, cong]
+5.2 +1.4 76 -0 -0 1003.3 1000.7
12 19.09 З 9-12
{12}
20 км в посл. час ливневой дождь 6/6 300 м
[Cb cap]
+5.5 +2.4 80 -0 -0 1004.1 1001.5
15 19.09 З 6-11
{13}
20 км в посл. час ливневой дождь 9/9 300 м
[Cb cap]
+4.9 +2.0 81 -0 -0 1004.5 1001.8 +6.2 0.5
18 19.09 З 9-12
{14}
20 км в посл. час ливневой дождь 8/8 300 м
[Cb cap]
+5.3 +1.3 75 -1 -1 1004.3 1001.7
21 19.09 20 км {ливн. осадки} н/о +4.8 +0.6 74 -1 -1 1003.8 1001.2
00 20.09 ЮЗ 4
{10}
20 км в посл. час ливневой дождь 9/9 300 м
[Cb cap]
+2.7 +1.4 91 -2 -2 1003.7 1001.0
03 20.09 Ю 4 20 км {ливн. осадки} 9/3 300 м
[Cb cap Ci sp]
-0.1 -0.9 94 -6 -6 1002.8 1000.1 -0.1
06 20.09 Ю 5 20 км {ливн. осадки} 4/3 300 м
[Cb cap Ci fib]
+2.3 +1.1 92 -3 -3 1001.7 999.0 -0.4
09 20.09 Ю 4
{11}
10 км осадки на расстоянии 9/9 300 м
[Cb cap]
+4.9 +1.3 77 +1 +1 1001.0 998.3
12 20.09 Ю 6-11
{13}
4000 м слаб. ливневой дождь 10/10 300 м
[Cb cap]
+3.1 +1.6 90 -3 -3 1000.8 998.2
15 20.09 Ю 5
{12}
20 км в посл. час ливневой дождь 8/5 300 м
[Cb cap Ac cuf Ci fib]
+3.1 +1.7 91 -2 -2 999.3 996.6 +6.2 2
18 20.09 Ю 5 4000 м слаб. ливневой дождь 10/10 300 м
[Cb cap]
+2.0 +1.3 95 -4 -4 997.9 995.2
21 20.09 Ю 4
{10}
4000 м дымка {ливн. осадки} 5/5 300 м
[Sc]
+1.1 +0.6 96 -4 -4 996.9 994.2
00 21.09 Ю 3 4000 м дымка {ливн. осадки} 8/0
[As op]
+0.4 +0.1 98 -4 -4 996.7 994.0
03 21.09 Ю 2 4000 м в посл. час ливневой снег 8/6 300 м
[Cb cap As op]
+0.7 +0.5 99 -3 -3 996.6 993.9 -0.1 2
06 21.09 СВ 4 20 км {ливн. осадки} 8/8 300 м
[Cb cap]
+5.4 +2.3 80 +1 +2 997.7 995.0
09 21.09 С 3 20 км {ливн. осадки} 8/8 300 м
[Cb cap]
+4.5 +1.7 82 +1 +1 999.1 996.5
12 21.09 С 4 20 км {ливн. осадки} 8/8 300 м
[Cb cap]
+5.3 +1.7 78 +1 +2 1000.0 997.4
15 21.09 СЗ 4
{11}
20 км {ливн. осадки} 8/8 300 м
[Cb cap]
+5.1 +1.2 76 +1 +1 999.8 997.2 +5.7 2
18 21.09 СЗ 5
{12}
20 км {ливн. осадки} 5/5 300 м
[Cb cap]
+4.8 +1.1 77 0 0 1000.1 997.4
21 21.09 СВ 4
{12}
20 км {ливн. осадки} 8/8 300 м
[Cb cap]
+4.6 +1.5 80 0 0 1000.0 997.4

 

Местоположение метеостанции Абрамовский маяк (Архангельская область, Россия): широта 66.38 долгота 43.25 высота над уровнем моря 20 м.

В архиве по умолчанию представлена погода в Абрамовском маяке за последнюю неделю. Архивные данные за месяц целиком и за предыдущие месяцы, начиная с января 2011 года, Вы можете получить, выбрав интересующий диапазон дат из раскрывающегося списка и нажав кнопку "Ввод!".


*Определитесь, кто Вы:
робот инопланетянин человек

Внимание! Время в таблицах - всемирное. Для получения местного времени необходимо прибавить поправку, которая равна 3 ч.

Смотрите также архив погоды в соседних городах и на ближайших метеорологических станциях:

Погода на Моржовец Острове (Архангельская область, Россия) (51 км)
Погода в Неси (Ненецкий АО, Россия) (68 км)
Погода в Мезене (Архангельская область, Россия) (72 км)
Погода на Сосновец Острове (Мурманская область, Россия) (115 км)
Погода в Кепино (Архангельская область, Россия) (129 км)
Погода в Мосеево (Архангельская область, Россия) (149 км)
Погода в Пялице (Мурманская область, Россия) (168 км)
Погода в Шойне (Ненецкий АО, Россия) (172 км)
Погода в Каневке (Мурманская область, Россия) (178 км)
Погода в Пинеге (Архангельская область, Россия) (184 км)

Пояснения к столбцам:

Ветер - указаны скорость ветра в м/с - средняя за 10 мин, порывы в срок и между сроками (в фигурных скобках) и направление, откуда дует ветер: С - северный, СВ - северо-восточный, В - восточный, ЮВ - юго-восточный, Ю - южный, ЮЗ - юго-западный, З - западный, СЗ - северо-западный.
Видимость - горизонтальная дальность видимости в метрах или километрах. При видимости от 1 до 10 км при отсутствии осадков обычно наблюдается дымка, при ухудшении видимости до 1 км и менее - туман. В сухую погоду видимость может ухудшаться дымом, пылью или мглою.
Явления - указаны атмосферные явления, наблюдавшиеся в срок или в последний час перед сроком; фигурными скобками обозначены явления, наблюдавшиеся между сроками (за 1-3 часа до срока); квадратными скобками обозначены град или гололедные отложения с указанием их диаметра в мм.
Облачность - указаны через наклонную черту общая и нижняя облачность в баллах и высота нижней границы облаков в метрах; квадратными скобками обозначены формы облаков: Ci - перистые, Cs - перисто-слоистые, Cc - перисто-кучевые, Ac - высококучевые, As - высокослоистые, Sc - слоисто-кучевые, Ns - слоисто-дождевые, Cu - кучевые, Cb - кучево-дождевые. Подробнее классификацию облаков см. в Атласе облаков (PDF).
T - Температура воздуха - температура, измеренная на высоте 2 м над землей.
Td - Температура точки росы - температура, при понижении до которой содержащийся в воздухе водяной пар достигнет насыщения.
f - Относительная влажность воздуха - влажноcть воздуха, измеренная на высоте 2 м над землей.
Te - Эффективная температура - температура, которую ощущает одетый по сезону человек в тени. Характеристика душности погоды. При расчете учитывается влияние влажности воздуха и скорости ветра на теплоощущения человека.
Tes - Эффективная температура на солнце - температура, которую ощущает человек, с поправкой на солнечный нагрев. Характеристика знойности погоды. Зависит от высоты солнца над горизонтом, облачности и скорости ветра. Ночью, в пасмурную погоду, а также при ветре 12 м/с и более поправка равна нулю.
P - Атмосферное давление - приведенное к уровню моря атмосферное давление.
Po - Атмосферное давление - измеренное на уровне метеостанции атмосферное давление.
Tmin - Минимальная температура - минимум температуры воздуха на высоте 2 м над землей.
Tmax - Максимальная температура - максимум температуры воздуха на высоте 2 м над землей.
R - Количество осадков - Количество выпавших осадков за период времени, мм. При наведении курсора мыши на число - период времени, за который выпало указанное количество осадков.
R24 - Количество осадков - Количество выпавших осадков за 24 часа, мм.
S - Снежный покров - Высота снежного покрова, см. При наведении курсора мыши на число - состояние снежного покрова и степень покрытия местности в баллах.